Flag for Germany Weather past 2 weeks in Stuhr, Lower Saxony, Germany

Now
75 °F

Passing clouds.


Feels Like: 78 °F
Forecast: 61 / 78 °F
Wind: 7 mph from West

Location: Bremen Airport

Current Time: Jul 31, 2014 at 4:15:40 PM

Latest Report: Jul 31, 2014 at 3:50 PM


Visibility: N/A

Pressure: 29.95 "Hg

Humidity: 47%

Dew point: 54 °F

Location of StuhrLocation

Historic Weather in Stuhr — Graph

°F

Stuhr temperature yesterday

Maximum temperature yesterday: 75 °F (at 2:20 PM)
Minimum temperature yesterday: 59 °F (at 11:50 PM)
Average temperature yesterday: 70 °F

Past Weeks' High & Low Weather Summary

 TemperatureHumidityPressure
High90 °F (Jul 19, 1:50 PM)100% (Jul 17, 4:50 AM)30.18 "Hg (Jul 17, 4:50 AM)
Low54 °F (Jul 17, 4:50 AM)27% (Jul 19, 4:20 PM)29.77 "Hg (Jul 20, 1:50 PM)
Average71 °F69%29.96 "Hg
* Reported Jul 16 3:20 PM — Jul 31 3:20 PM, Stuhr, Weather by CustomWeather, © 2014

Note: Actual official high and low records may vary slightly from our data, if they occured in-between our weather recording intervals... More about our weather records

Advertising

Stuhr weather history for previous 24 hours

 ConditionsComfort  
Time TempWeatherWind HumidityBarometerVisibility
3:20 PM
Jul 31
73 °FPassing clouds.8 mph50%29.95 "HgN/A
2:50 PM73 °FPassing clouds.7 mph50%29.95 "HgN/A
2:20 PM73 °FScattered clouds.5 mph50%29.95 "HgN/A
1:50 PM73 °FScattered clouds.6 mph53%29.95 "HgN/A
1:20 PM72 °FScattered clouds.9 mph57%29.95 "HgN/A
12:50 PM70 °FScattered clouds.8 mph60%29.95 "HgN/A
12:20 PM70 °FScattered clouds.6 mph60%29.95 "HgN/A
11:50 AM72 °FScattered clouds.10 mph61%29.98 "HgN/A
11:20 AM68 °FScattered clouds.8 mph64%29.95 "HgN/A
10:50 AM68 °FScattered clouds.9 mph64%29.95 "HgN/A
10:20 AM66 °FPassing clouds.9 mph68%29.95 "HgN/A
9:50 AM66 °FPassing clouds.10 mph68%29.98 "HgN/A
9:20 AM64 °FMild.9 mph73%29.95 "HgN/A
8:50 AM64 °FSunny.7 mph78%29.95 "Hg10 mi
8:20 AM63 °FSunny.7 mph83%29.95 "Hg10 mi
7:50 AM61 °FSunny.6 mph88%29.95 "Hg10 mi
7:20 AM59 °FPassing clouds.3 mph88%29.95 "HgN/A
6:50 AM57 °FSunny.3 mph94%29.95 "Hg10 mi
6:20 AM55 °FFog.3 mph94%29.95 "HgN/A
5:50 AM55 °FFog.5 mph94%29.95 "HgN/A
5:20 AM55 °FFog.3 mph94%29.95 "HgN/A
4:50 AM55 °FFog.3 mph94%29.95 "HgN/A
4:20 AM57 °FPassing clouds.1 mph94%29.95 "HgN/A
3:50 AM55 °FClear.5 mph94%29.95 "Hg10 mi
3:20 AM55 °FClear.6 mph94%29.92 "Hg10 mi
2:50 AM55 °FClear.6 mph94%29.92 "Hg10 mi
2:20 AM57 °FClear.5 mph94%29.92 "Hg10 mi
1:50 AM57 °FPassing clouds.6 mph94%29.92 "HgN/A
1:20 AM59 °FPassing clouds.5 mph88%29.92 "HgN/A
12:50 AM59 °FPassing clouds.3 mph88%29.92 "HgN/A
12:20 AM59 °FClear.5 mph88%29.92 "Hg10 mi
11:50 PM
Jul 30
59 °FPassing clouds.6 mph88%29.92 "HgN/A
11:20 PM64 °FPassing clouds.8 mph73%29.92 "HgN/A
10:50 PM66 °FPassing clouds.8 mph73%29.92 "HgN/A
10:20 PM66 °FScattered clouds.7 mph73%29.92 "HgN/A
9:50 PM68 °FScattered clouds.8 mph69%29.89 "HgN/A
9:20 PM68 °FBroken clouds.10 mph64%29.89 "HgN/A
8:50 PM68 °FPartly sunny.12 mph64%29.89 "HgN/A
8:20 PM70 °FScattered clouds.12 mph57%29.86 "HgN/A
7:50 PM70 °FScattered clouds.12 mph57%29.86 "HgN/A
7:20 PM72 °FPassing clouds.13 mph53%29.86 "HgN/A
6:50 PM73 °FPassing clouds.13 mph47%29.83 "HgN/A
6:20 PM73 °FScattered clouds.10 mph50%29.86 "HgN/A
5:50 PM75 °FSunny.13 mph47%29.86 "Hg10 mi
5:20 PM73 °FPassing clouds.13 mph50%29.83 "HgN/A
4:50 PM75 °FPassing clouds.15 mph44%29.83 "HgN/A
4:20 PM75 °FPassing clouds.15 mph47%29.83 "HgN/A
Weather by CustomWeather, © 2014

See weather overviewHow to use our weather pages